This is the latest recevied weather packets stored in our database for station/object WA4ORT. If no packets are shown the sender has not sent any weather packets the latest 10 day(s).
| Time | Temp. | Humidity | Pressure | Rain* | Wind** | Luminosity | Snow |
|---|---|---|---|---|---|---|---|
| 1788132050 | 28.33° C | - | - | 0 mm | 0.89 m/s, 225° | - | - |
| 1788131152 | 28.89° C | - | - | 0 mm | 0 m/s | - | - |
| 1788130257 | 28.89° C | - | - | 0 mm | 0 m/s | - | - |
| 1788129363 | 28.33° C | - | - | 0 mm | 0.89 m/s, 333° | - | - |
| 1788128556 | 30.56° C | - | - | 0 mm | 1.79 m/s, 357° | - | - |
| 1788128465 | 30.56° C | - | - | 0 mm | 1.79 m/s, 357° | - | - |
| 1788127571 | 30.56° C | - | - | 0 mm | 1.34 m/s, 134° | - | - |
| 1788126715 | 30.56° C | - | - | 0 mm | 0 m/s | - | - |
| 1788126677 | 30.56° C | - | - | 0 mm | 0 m/s | - | - |
| 1788125816 | 31.11° C | - | - | 0 mm | 0 m/s | - | - |
| 1788125778 | 31.11° C | - | - | 0 mm | 0 m/s | - | - |
| 1788124884 | 30.56° C | - | - | 0 mm | 0.89 m/s, 18° | - | - |
| 1788123990 | 30° C | - | - | 0 mm | 1.34 m/s, 72° | - | - |
| 1788123092 | 30.56° C | - | - | 0 mm | 0.89 m/s, 323° | - | - |
| 1788122198 | 30.56° C | - | - | 0 mm | 0 m/s | - | - |
| 1788121303 | 30.56° C | - | - | 0 mm | 0.89 m/s, 53° | - | - |
| 1788120405 | 31.11° C | - | - | 0 mm | 0.89 m/s, 308° | - | - |
| 1788119511 | 30.56° C | - | - | 0 mm | 1.34 m/s, 129° | - | - |
| 1788118618 | 30.56° C | - | - | 0 mm | 1.34 m/s, 39° | - | - |
| 1788117719 | 30.56° C | - | - | 0 mm | 0.89 m/s, 55° | - | - |
| 1788116825 | 30° C | - | - | 0 mm | 0.89 m/s, 100° | - | - |
| 1788115930 | 30° C | - | - | 0 mm | 1.79 m/s, 311° | - | - |
| 1788115033 | 28.89° C | - | - | 0 mm | 0.89 m/s, 263° | - | - |
| 1788113243 | 29.44° C | - | - | 0 mm | 1.79 m/s, 315° | - | - |
| 1788112346 | 29.44° C | - | - | 0 mm | 0.89 m/s, 83° | - | - |
* Rain latest hour (hover to see other rain measurements)
** Current wind speed in m/s (hover to see current wind gust speed)